CAPE
9 5 10 10 14 13 33 47 69 168 83 89 47 11 0 0 0 0 0 0 0 1 0 0 1 2 10 9 10 5 7 4 3
9 11 68 76 82 56 58 60 108 172 42 47 74 0 0 0 0 0 0 0 0 0 0 0 0 0 0 0 1 2 4 2 0
5 6 5 25 67 60 82 103 134 90 18 29 38 0 0 0 0 0 0 0 0 0 0 0 0 0 0 0 0 0 0 0 0
13 7 27 31 50 80 81 79 70 33 3 0 0 0 0 0 0 0 0 0 0 0 0 0 0 0 0 0 0 0 0 0 0
47 58 65 50 28 25 23 13 0 0 0 0 0 0 0 0 0 0 0 0 0 0 0 0 0 0 0 0 0 0 0 0 0
30 13 42 56 29 16 2 0 0 0 0 0 0 0 0 0 0 0 0 0 0 0 0 0 0 0 0 0 0 0 0 0 0
0 0 10 40 24 14 0 0 0 0 0 0 0 0 0 0 0 0 0 0 0 0 0 0 0 0 0 0 0 0 0 0 0
0 0 0 0 0 0 0 0 0 0 0 0 0 0 0 0 0 0 0 0 0 0 0 0 0 0 0 0 0 0 0 0 0
1 0 0 0 0 0 0 0 0 0 0 0 0 0 0 0 0 0 0 0 14 42 18 38 98 89 58 5 0 0 0 0 0
30 19 1 0 0 0 0 0 0 0 0 0 0 0 0 0 0 0 0 0 4 42 61 64 58 117 109 111 88 63 23 3 0
47 36 14 0 0 0 0 0 0 0 0 0 0 0 0 0 0 0 0 0 5 31 60 68 99 101 49 57 72 80 91 109 56
157 59 18 0 0 0 0 0 0 0 0 0 0 0 0 0 2 0 2 10 19 23 48 72 105 97 67 95 86 107 100 110 124
120 126 18 0 0 0 0 0 0 0 0 0 1 9 7 6 7 14 20 30 17 45 44 51 92 63 71 102 113 51 19 11 16
181 84 0 0 0 5 10 15 40 53 32 8 8 14 18 28 10 8 4 1 4 15 40 65 64 89 115 111 89 35 4 0 0
236 183 26 0 8 45 97 109 25 70 31 68 84 49 17 1 0 0 0 0 0 0 26 66 65 66 86 62 40 16 0 0 0
234 247 32 15 24 113 156 125 209 148 137 120 5 1 0 0 0 0 0 0 0 0 21 59 58 65 19 11 0 0 0 0 0
246 275 135 157 202 325 305 441 242 228 126 22 9 0 0 0 0 0 0 0 0 2 27 44 52 24 41 16 1 2 0 0 0
310 336 313 327 281 338 365 335 229 105 52 0 11 6 0 0 0 0 0 0 0 10 21 24 26 36 26 27 9 4 7 0 0
264 260 242 185 232 261 220 160 243 276 113 53 68 13 9 8 0 0 0 0 0 5 25 17 23 34 37 29 27 22 1 0 0
206 194 136 132 168 187 125 203 247 174 11 0 0 0 0 0 0 0 0 0 0 11 23 17 7 28 42 37 31 24 7 0 0
CIN
0 0 0 0 0 -20 -57 -49 -42 -99 -33 -24 -42 -39 0 0 0 0 0 0 0 0 0 0 -0 -0 -2 -1 0 0 -0 0 0
0 0 -92 -130 -154 -62 -53 -78 -131 -85 -66 -62 -28 0 0 0 0 0 0 0 0 0 0 0 0 0 0 -0 -0 -0 0 0 -0
0 -0 0 -103 -117 -63 -120 -114 -99 -113 -97 -88 -53 0 0 0 0 0 0 0 0 0 0 0 0 0 0 0 0 0 0 -0 0
-24 -23 -108 -99 -76 -125 -124 -121 -121 -68 -45 0 0 0 0 0 0 0 0 0 0 0 0 0 0 0 0 0 0 0 0 0 0
-116 -97 -80 -84 -97 -88 -101 -101 0 0 0 0 0 0 0 0 0 0 0 0 0 0 0 0 0 0 0 0 0 0 0 0 0
-137 -147 -112 -81 -109 -128 -37 0 0 0 0 0 0 0 0 0 0 0 0 0 0 0 0 0 0 0 0 0 0 0 0 0 0
0 0 -121 -109 -132 -145 0 0 0 0 0 0 0 0 0 0 0 0 0 0 0 0 0 0 0 0 0 0 0 0 0 0 0
0 0 0 0 0 0 0 0 0 0 0 0 0 0 0 0 0 0 0 0 0 -0 0 0 0 0 0 0 0 0 0 0 0
-25 0 0 0 0 0 0 0 0 0 0 0 0 0 0 0 0 0 0 0 -25 -26 -6 -4 -1 -6 -4 0 0 0 0 0 0
-155 -172 -39 0 0 0 0 0 0 0 0 0 0 0 0 0 0 0 0 0 -42 -26 -13 -10 -10 -3 -2 -4 -2 -2 -12 -8 0
-119 -128 -168 0 0 0 0 0 0 0 0 0 0 0 0 0 0 0 0 0 -1 -47 -30 -15 -9 -5 -4 -6 -3 -3 -4 -2 -3
-77 -137 -152 0 0 0 0 0 0 0 0 0 0 0 0 0 -6 0 -1 -0 -2 -12 -58 -36 -15 -6 -12 -10 -4 -10 -14 -6 -6
-83 -87 -158 0 0 0 0 0 0 0 0 0 -2 -6 -10 -4 0 -3 -8 -12 -3 -10 -14 -67 -33 -36 -24 -17 -2 -6 -20 -18 -11
-60 -117 0 0 0 -74 -40 -77 -47 -24 -40 -5 -8 -29 -20 -15 -16 -17 -23 -18 -14 -16 -10 -6 -8 -48 -26 -20 -21 -26 -28 0 0
-55 -60 -123 0 -109 -66 -26 -19 -64 -20 -33 -36 -40 -54 -22 -11 0 0 0 0 0 0 -11 -5 -8 -58 -25 -31 -38 -47 0 0 0
-52 -34 -109 -110 -76 -14 -12 -23 -1 -19 -37 -39 -11 -6 -0 0 0 0 0 0 0 0 -15 -6 -4 -15 -12 0 -0 0 0 0 0
-38 -20 -17 -13 -13 -8 -14 0 -13 -16 -39 -62 -3 -0 0 0 0 0 0 0 0 -8 -11 -15 -11 -0 -2 -3 -3 -6 0 0 0
-6 -8 -15 -7 -16 -22 -20 -25 -33 -21 -48 -3 -7 0 0 0 0 0 0 0 0 -6 -7 -1 -0 -0 -5 -4 -5 -3 0 0 -0
-8 -16 -16 -36 -60 -35 -24 -28 -3 -0 -6 -26 -8 -4 0 0 -0 0 0 0 0 -8 -11 -0 -7 -2 -3 -4 -2 -1 0 0 0
-29 -18 0 -23 -44 -64 -43 -42 -14 -16 -22 0 0 0 0 0 0 0 0 0 0 -4 -7 -13 -0 -4 -2 -1 0 0 -2 0 0
Wind_Speed
nan nan nan nan nan nan nan nan nan 12 nan nan nan nan nan nan nan nan nan nan nan nan nan nan nan nan nan nan nan nan nan nan nan
nan nan nan nan nan nan nan nan 13 12 nan nan nan nan nan nan nan nan nan nan nan nan nan nan nan nan nan nan nan nan nan nan nan
nan nan nan nan nan nan nan 14 12 nan nan nan nan nan nan nan nan nan nan nan nan nan nan nan nan nan nan nan nan nan nan nan nan
nan nan nan nan nan nan nan nan nan nan nan nan nan nan nan nan nan nan nan nan nan nan nan nan nan nan nan nan nan nan nan nan nan
nan nan nan nan nan nan nan nan nan nan nan nan nan nan nan nan nan nan nan nan nan nan nan nan nan nan nan nan nan nan nan nan nan
nan nan nan nan nan nan nan nan nan nan nan nan nan nan nan nan nan nan nan nan nan nan nan nan nan nan nan nan nan nan nan nan nan
nan nan nan nan nan nan nan nan nan nan nan nan nan nan nan nan nan nan nan nan nan nan nan nan nan nan nan nan nan nan nan nan nan
nan nan nan nan nan nan nan nan nan nan nan nan nan nan nan nan nan nan nan nan nan nan nan nan nan nan nan nan nan nan nan nan nan
nan nan nan nan nan nan nan nan nan nan nan nan nan nan nan nan nan nan nan nan nan nan nan nan nan nan nan nan nan nan nan nan nan
nan nan nan nan nan nan nan nan nan nan nan nan nan nan nan nan nan nan nan nan nan nan nan nan nan 29 30 32 nan nan nan nan nan
nan nan nan nan nan nan nan nan nan nan nan nan nan nan nan nan nan nan nan nan nan nan nan nan nan 30 nan nan nan nan nan 28 nan
20 nan nan nan nan nan nan nan nan nan nan nan nan nan nan nan nan nan nan nan nan nan nan nan 29 nan nan nan nan 39 35 32 26
21 22 nan nan nan nan nan nan nan nan nan nan nan nan nan nan nan nan nan nan nan nan nan nan nan nan nan 43 49 nan nan nan nan
21 nan nan nan nan nan nan nan nan nan nan nan nan nan nan nan nan nan nan nan nan nan nan nan nan nan 48 51 nan nan nan nan nan
23 26 nan nan nan nan nan 31 nan nan nan nan nan nan nan nan nan nan nan nan nan nan nan nan nan nan nan nan nan nan nan nan nan
29 28 nan nan nan 32 34 36 35 35 38 37 nan nan nan nan nan nan nan nan nan nan nan nan nan nan nan nan nan nan nan nan nan
35 33 32 37 40 38 40 42 40 40 42 nan nan nan nan nan nan nan nan nan nan nan nan nan nan nan nan nan nan nan nan nan nan
38 39 40 40 42 43 48 50 49 44 nan nan nan nan nan nan nan nan nan nan nan nan nan nan nan nan nan nan nan nan nan nan nan
36 39 42 40 40 37 38 38 47 53 49 nan nan nan nan nan nan nan nan nan nan nan nan nan nan nan nan nan nan nan nan nan nan
42 45 40 44 41 41 32 36 41 44 nan nan nan nan nan nan nan nan nan nan nan nan nan nan nan nan nan nan nan nan nan nan nan
Wind_Direction
nan nan nan nan nan nan nan nan nan 275 nan nan nan nan nan nan nan nan nan nan nan nan nan nan nan nan nan nan nan nan nan nan nan
nan nan nan nan nan nan nan nan 285 273 nan nan nan nan nan nan nan nan nan nan nan nan nan nan nan nan nan nan nan nan nan nan nan
nan nan nan nan nan nan nan 292 282 nan nan nan nan nan nan nan nan nan nan nan nan nan nan nan nan nan nan nan nan nan nan nan nan
nan nan nan nan nan nan nan nan nan nan nan nan nan nan nan nan nan nan nan nan nan nan nan nan nan nan nan nan nan nan nan nan nan
nan nan nan nan nan nan nan nan nan nan nan nan nan nan nan nan nan nan nan nan nan nan nan nan nan nan nan nan nan nan nan nan nan
nan nan nan nan nan nan nan nan nan nan nan nan nan nan nan nan nan nan nan nan nan nan nan nan nan nan nan nan nan nan nan nan nan
nan nan nan nan nan nan nan nan nan nan nan nan nan nan nan nan nan nan nan nan nan nan nan nan nan nan nan nan nan nan nan nan nan
nan nan nan nan nan nan nan nan nan nan nan nan nan nan nan nan nan nan nan nan nan nan nan nan nan nan nan nan nan nan nan nan nan
nan nan nan nan nan nan nan nan nan nan nan nan nan nan nan nan nan nan nan nan nan nan nan nan nan nan nan nan nan nan nan nan nan
nan nan nan nan nan nan nan nan nan nan nan nan nan nan nan nan nan nan nan nan nan nan nan nan nan 340 331 325 nan nan nan nan nan
nan nan nan nan nan nan nan nan nan nan nan nan nan nan nan nan nan nan nan nan nan nan nan nan nan 327 nan nan nan nan nan 331 nan
259 nan nan nan nan nan nan nan nan nan nan nan nan nan nan nan nan nan nan nan nan nan nan nan 337 nan nan nan nan 305 294 285 304
262 263 nan nan nan nan nan nan nan nan nan nan nan nan nan nan nan nan nan nan nan nan nan nan nan nan nan 311 305 nan nan nan nan
263 nan nan nan nan nan nan nan nan nan nan nan nan nan nan nan nan nan nan nan nan nan nan nan nan nan 313 307 nan nan nan nan nan
272 268 nan nan nan nan nan 270 nan nan nan nan nan nan nan nan nan nan nan nan nan nan nan nan nan nan nan nan nan nan nan nan nan
271 273 nan nan nan 274 273 266 268 265 269 266 nan nan nan nan nan nan nan nan nan nan nan nan nan nan nan nan nan nan nan nan nan
270 279 284 285 280 276 272 271 261 260 261 nan nan nan nan nan nan nan nan nan nan nan nan nan nan nan nan nan nan nan nan nan nan
287 281 277 275 274 284 267 261 261 260 nan nan nan nan nan nan nan nan nan nan nan nan nan nan nan nan nan nan nan nan nan nan nan
271 276 277 273 278 287 276 271 272 262 261 nan nan nan nan nan nan nan nan nan nan nan nan nan nan nan nan nan nan nan nan nan nan
263 265 255 252 265 268 256 259 262 264 nan nan nan nan nan nan nan nan nan nan nan nan nan nan nan nan nan nan nan nan nan nan nan